EHI
0 0 0 0 0 0 0 0 0 0 1 2 2 5 12 21 30 39 48 52 46 32 20 11 6 3 3 3 3 3 4 7 9 9 9 9 8 5 2 1 2 2 2 1
0 0 0 0 0 0 0 0 0 0 0 1 1 3 9 15 22 32 40 40 33 22 13 7 2 1 1 1 1 2 3 4 6 7 7 6 5 3 1 0 1 1 2 2
0 0 0 0 0 0 0 0 0 0 0 0 0 1 4 8 14 20 24 21 15 9 5 2 0 0 0 0 0 1 1 1 3 5 5 5 4 3 2 1 1 1 2 2
0 0 0 0 0 0 0 0 0 0 0 0 0 0 1 4 7 9 9 7 5 3 1 0 0 0 1 0 0 0 0 0 1 2 3 4 4 4 4 3 2 1 1 1
0 0 0 0 0 0 0 0 0 0 0 0 0 0 0 2 3 3 2 1 1 1 0 0 0 0 0 0 0 0 0 0 0 0 1 2 2 3 3 2 2 1 0 0
0 0 0 0 0 0 0 0 0 0 0 0 0 0 0 1 1 1 0 0 0 0 0 0 0 0 0 0 0 0 0 0 0 0 0 0 1 1 1 0 1 1 0 0
0 0 0 0 0 0 0 0 0 0 0 0 0 0 0 0 0 0 0 0 0 0 0 0 0 0 0 0 0 0 0 0 0 0 0 0 0 0 0 0 0 0 0 0
0 0 0 0 0 0 0 0 0 0 0 0 0 0 0 0 0 0 0 0 0 0 0 0 0 0 0 0 0 0 0 0 0 0 0 0 0 0 0 0 0 0 0 0
0 0 0 0 0 0 0 0 0 0 0 0 0 0 0 0 0 0 0 0 0 0 0 0 0 0 0 0 0 0 0 0 0 0 0 0 0 0 0 0 0 0 0 0
0 0 0 0 0 0 0 0 0 0 0 0 0 0 0 0 0 0 0 0 0 0 0 0 0 0 0 0 0 0 0 0 0 0 0 0 0 0 0 0 0 0 0 0
0 0 0 0 0 0 0 0 0 0 0 0 0 0 0 0 0 0 0 0 0 0 0 0 0 0 0 0 0 0 0 0 0 0 0 0 0 0 0 0 0 0 0 0
0 0 0 0 0 0 0 0 0 0 0 0 0 0 0 0 0 0 0 0 0 0 0 0 0 0 0 0 0 0 0 0 0 0 0 0 0 0 0 0 0 0 0 0
0 0 0 0 0 0 0 0 0 0 0 0 0 0 0 0 0 0 0 0 0 0 0 0 0 0 0 0 0 0 0 0 0 0 0 0 0 0 0 0 0 0 0 0
0 0 0 0 0 0 0 0 0 0 0 0 0 0 0 0 0 0 0 0 0 0 0 0 0 0 0 0 0 0 0 0 0 0 0 0 0 0 0 0 0 0 0 0
0 0 0 0 0 0 0 0 0 0 0 0 0 0 0 0 0 0 0 0 0 0 0 0 0 0 0 0 0 0 0 0 0 0 0 0 0 0 0 0 0 0 0 0
0 0 0 0 0 0 0 0 0 0 0 0 0 0 0 0 0 0 0 0 0 0 0 0 0 0 0 0 0 0 0 0 0 0 0 0 0 0 0 0 0 0 0 0
0 0 0 0 0 0 0 0 0 0 0 0 0 0 0 0 0 0 0 0 0 0 0 0 0 0 0 0 0 0 0 0 0 0 0 0 0 0 0 0 0 0 0 0
0 0 0 0 0 0 0 0 0 0 0 0 0 0 0 0 0 0 0 0 0 0 0 0 0 0 0 0 0 0 0 0 0 0 0 0 0 0 0 0 0 0 0 0
0 0 0 0 0 0 0 0 0 0 0 0 0 0 0 0 0 0 0 0 0 0 0 0 0 0 0 0 0 0 0 0 0 0 0 0 0 0 0 0 0 0 0 0
0 0 0 0 0 0 0 0 0 0 0 0 0 0 0 0 0 0 0 0 0 0 0 0 0 0 0 0 0 0 0 0 0 0 0 0 0 0 0 0 0 0 0 0
0 0 0 0 0 0 0 0 0 0 0 0 0 0 0 0 0 0 0 0 0 0 0 0 0 0 0 0 0 0 0 0 0 0 0 0 0 0 0 0 0 0 0 0
0 0 0 0 0 0 0 0 0 0 0 0 0 0 0 0 0 0 0 0 0 0 0 0 0 0 0 0 0 0 0 0 0 0 0 0 0 0 0 0 0 0 0 0
0 0 0 0 0 0 0 0 0 0 0 0 0 0 0 0 0 0 0 0 0 0 0 0 0 0 0 0 0 0 0 0 0 0 0 0 0 0 0 0 0 0 0 0
0 0 0 0 0 0 0 0 0 0 0 0 0 0 0 0 0 0 0 0 0 0 0 0 0 0 0 0 0 0 0 0 0 0 0 0 0 0 0 0 0 0 0 0
0 0 0 0 0 0 0 0 0 0 0 0 0 0 0 0 0 0 0 0 0 0 0 0 0 0 0 0 0 0 0 0 0 0 0 0 0 0 0 0 0 0 0 0
0 0 0 0 0 0 0 0 0 0 0 0 0 0 0 0 0 0 0 0 0 0 0 0 0 0 0 0 0 0 0 0 0 0 0 0 0 0 0 0 0 0 0 0
Wind_Speed
2 2 6 10 9 10 6 3 4 4 5 8 10 13 15 15 17 15 12 11 10 9 8 7 6 6 5 5 6 5 1 1 0 1 2 2 2 2 2 2 4 6 6 7
3 5 10 9 6 5 3 3 4 4 5 7 11 16 16 18 19 16 15 13 10 8 7 6 5 5 5 4 4 3 0 1 1 2 2 2 2 3 2 2 3 5 6 7
3 3 7 7 7 5 4 2 3 3 5 7 6 8 12 14 16 16 15 12 10 8 6 5 6 6 7 8 7 4 4 4 3 2 2 1 1 1 1 1 2 3 5 6
3 6 9 9 7 3 4 4 2 3 4 3 3 2 4 7 13 14 13 10 8 6 6 6 7 9 9 8 7 7 6 5 5 4 2 1 1 1 2 2 2 2 3 4
4 5 7 6 6 4 3 3 2 2 1 1 3 4 2 3 8 8 8 8 5 3 4 5 6 7 6 6 6 6 7 7 6 5 4 3 3 2 2 2 2 2 2 4
4 4 3 4 6 4 2 5 7 6 6 3 3 3 2 2 3 4 5 5 3 1 2 3 4 5 5 5 5 5 6 6 6 6 6 6 5 5 5 4 4 3 3 3
7 7 4 2 4 6 5 7 6 7 6 3 1 5 1 4 7 7 6 5 5 4 3 3 3 3 2 2 2 3 3 3 4 4 5 5 5 5 5 5 4 4 3 3
2 7 6 3 2 3 1 7 6 2 4 3 3 2 2 4 4 4 4 5 5 4 3 3 3 3 3 3 2 2 1 0 1 2 2 3 3 2 3 4 4 4 3 4
5 6 5 3 3 2 1 1 5 6 0 1 0 2 1 3 4 4 4 4 4 5 5 5 5 5 5 5 5 5 4 3 2 2 2 2 2 2 3 4 4 3 4 4
4 2 4 5 6 6 3 2 6 5 1 2 2 3 5 8 8 6 5 3 3 3 4 5 5 6 6 7 6 5 5 5 5 5 5 4 4 4 4 3 4 4 4 4
3 3 6 6 4 3 5 5 4 3 3 3 2 4 3 7 6 4 4 3 3 3 4 5 5 6 6 5 5 5 6 6 6 7 7 7 7 6 6 5 6 5 5 5
3 5 3 4 5 2 3 1 3 2 2 2 1 4 3 2 2 2 0 1 2 4 5 5 6 5 4 4 5 6 7 7 8 8 8 8 8 7 7 7 8 7 6 6
4 6 5 9 10 7 6 6 4 5 4 3 2 5 4 3 3 3 3 5 6 6 6 6 5 4 4 5 6 7 8 9 10 9 9 9 9 9 9 9 9 8 8 7
5 5 4 2 6 3 5 9 8 6 4 2 1 2 7 6 5 6 6 7 7 6 5 5 5 6 7 7 8 8 9 10 10 9 10 10 11 11 11 11 10 9 9 8
7 4 3 1 4 10 9 9 9 8 4 2 2 2 4 5 4 5 7 8 6 6 7 8 8 8 8 8 9 9 9 10 10 9 10 12 12 12 11 10 10 10 10 10
5 3 5 4 6 10 10 9 7 6 5 3 3 1 3 4 5 7 9 9 8 9 10 10 10 10 10 10 10 10 10 10 9 9 11 11 10 10 10 11 11 10 10 10
2 3 4 4 4 4 6 6 5 4 4 4 2 4 6 6 8 9 9 8 9 12 13 12 11 11 11 11 10 10 10 9 8 9 10 10 10 10 10 10 9 9 10 10
5 3 3 1 6 3 2 1 4 5 5 4 1 4 5 6 8 7 8 8 11 12 12 12 11 10 10 10 9 9 9 9 9 9 9 9 9 10 10 9 9 9 8 7
4 5 4 3 1 1 0 4 3 1 2 3 3 6 7 7 6 6 9 9 11 12 11 11 10 11 10 10 11 11 12 11 11 11 10 9 9 9 9 9 9 8 6 7
6 6 6 3 1 2 3 5 4 2 2 2 5 6 7 8 7 7 9 10 10 10 9 9 9 9 11 11 11 12 12 12 12 12 11 10 9 9 10 9 8 7 6 7
5 6 5 2 1 2 3 5 5 4 7 6 5 6 6 6 7 11 12 10 9 9 9 9 10 10 11 12 12 13 14 14 14 13 12 12 11 10 10 9 8 7 7 7
4 3 2 2 1 5 4 4 3 5 5 5 5 5 6 8 9 9 9 10 10 9 10 11 11 12 13 12 12 14 15 15 14 13 13 13 11 11 10 8 7 7 7 7
4 7 6 6 6 5 1 3 4 4 3 4 5 6 7 8 8 9 8 9 9 10 12 11 13 15 14 13 13 16 16 15 14 13 13 12 11 9 8 8 7 6 6 6
2 3 4 2 2 4 3 2 0 0 2 4 5 6 6 7 8 8 8 9 10 10 12 12 15 16 17 16 15 15 16 14 13 12 11 10 9 8 7 6 6 5 5 5
5 4 3 1 1 1 2 2 2 2 4 5 6 6 6 7 7 7 8 10 10 11 12 13 15 16 18 17 17 16 14 13 12 11 10 8 7 6 6 5 5 6 5 6
1 5 6 5 5 4 4 3 2 4 5 5 6 7 7 6 7 8 9 9 11 14 14 15 16 16 17 17 16 15 13 12 11 9 8 5 5 4 4 3 3 5 6 8
Wind_Direction
293 124 241 247 218 217 248 282 317 320 345 40 53 60 52 54 60 61 57 61 68 65 55 55 60 72 79 73 82 82 65 291 360 324 308 303 294 280 263 225 195 180 169 162
336 247 244 254 293 297 303 354 342 329 358 42 71 73 66 59 59 57 52 46 44 48 47 45 47 52 55 67 83 102 62 293 238 245 252 237 226 256 250 240 205 187 173 168
214 289 332 335 322 336 336 347 329 331 11 28 81 67 65 64 65 64 60 52 45 49 52 52 51 52 56 44 33 30 16 360 340 287 270 300 330 311 338 273 238 214 186 176
7 334 349 341 322 333 310 298 333 349 25 336 58 106 72 68 61 59 60 52 41 34 42 50 53 53 52 46 37 32 32 29 4 347 343 304 244 250 250 252 249 241 219 199
315 317 331 319 298 320 269 303 10 360 37 3 8 108 81 69 61 62 67 69 53 33 52 62 65 65 59 49 41 34 32 29 21 25 20 18 4 325 320 335 330 304 264 233
278 270 246 259 296 294 303 25 22 35 55 15 324 104 27 40 109 111 106 106 114 126 90 80 75 72 64 54 48 42 37 26 16 22 22 23 11 357 0 357 342 326 314 294
327 318 298 266 315 336 48 63 23 0 5 299 352 91 157 152 153 159 159 164 176 186 163 123 99 92 99 89 74 60 49 25 13 21 18 15 10 5 2 348 334 330 327 322
305 305 300 306 229 244 318 120 141 209 244 278 9 103 190 173 177 184 178 177 181 185 179 164 169 176 185 183 174 163 140 334 348 8 355 353 353 350 337 332 330 331 323 312
196 264 299 319 325 122 31 291 172 148 342 68 202 126 188 198 207 205 195 186 182 179 182 189 196 200 205 207 207 199 195 218 253 267 280 289 306 312 310 313 319 316 316 319
164 246 316 335 27 20 112 118 63 70 61 322 282 208 201 198 220 220 209 194 194 187 193 203 213 220 221 216 212 202 196 207 224 234 242 243 244 248 257 275 288 293 298 309
100 85 331 2 16 353 13 24 69 91 145 143 303 287 239 200 208 201 205 206 214 231 242 251 252 248 243 229 213 206 211 217 227 233 237 240 241 239 239 247 256 262 270 283
45 94 353 309 305 13 51 18 111 113 333 83 114 287 291 185 180 152 88 332 306 299 294 292 295 298 295 265 244 234 232 231 233 234 236 240 243 241 240 243 246 247 254 262
69 78 30 347 346 2 23 18 61 103 87 68 61 311 351 33 27 19 6 343 325 323 328 331 332 318 285 263 252 248 243 240 240 237 237 241 243 241 240 241 242 240 242 249
93 81 125 210 270 327 52 52 53 79 81 58 51 332 2 13 8 0 351 332 324 332 334 323 305 287 273 264 256 253 251 247 245 241 237 239 242 241 240 240 240 238 235 237
82 57 354 3 81 85 75 65 65 72 82 91 335 95 4 352 347 331 325 322 327 328 318 306 295 283 275 269 263 257 254 250 245 240 236 237 238 239 239 238 238 237 234 237
73 63 27 23 100 97 73 52 49 50 43 34 69 80 318 320 333 332 328 324 318 312 308 302 295 289 283 277 273 269 263 257 248 241 239 238 236 235 234 234 234 234 234 236
79 82 51 331 315 76 31 24 47 45 39 70 57 307 313 328 328 318 314 310 306 309 308 303 298 293 290 288 285 285 280 276 266 255 250 243 236 233 232 232 230 229 231 231
131 104 106 10 24 41 221 63 73 99 92 61 21 307 309 303 296 290 296 298 301 302 302 302 301 300 298 297 300 297 295 290 282 274 268 259 248 241 233 227 225 226 225 222
132 124 89 74 22 184 345 6 5 348 149 49 356 327 318 307 310 290 281 287 292 297 301 303 306 309 311 312 311 309 304 298 291 286 280 276 270 262 247 232 225 221 219 222
50 79 91 71 18 250 273 318 316 32 213 345 354 326 314 332 332 295 295 299 301 304 307 312 317 316 315 312 312 310 306 302 296 291 286 279 272 267 257 242 232 225 219 223
30 39 65 67 300 259 296 322 37 61 276 298 307 306 309 306 274 286 306 312 313 314 315 317 316 313 309 307 306 302 298 294 291 288 283 278 269 262 258 248 238 231 227 224
127 110 101 94 3 273 318 42 77 237 254 283 292 295 295 289 290 300 310 315 319 320 316 316 314 312 308 305 303 300 297 294 292 288 283 278 269 264 265 249 240 230 223 222
150 174 175 174 204 221 149 146 196 211 260 284 292 299 302 307 307 313 316 319 318 316 316 316 316 314 312 309 304 302 300 298 294 290 285 279 271 260 255 249 242 233 220 218
249 149 112 117 163 170 153 150 259 317 312 309 312 311 319 317 316 320 320 320 319 319 320 322 321 320 319 316 312 304 302 301 295 290 286 282 273 262 253 246 238 229 221 217
198 134 115 159 202 159 342 343 349 7 357 342 330 322 326 328 325 322 321 321 321 323 323 323 323 320 318 317 315 313 310 307 302 297 291 286 276 264 255 244 234 227 222 212
189 151 153 208 220 193 254 283 29 26 352 336 335 331 330 333 325 326 323 322 324 326 325 324 323 321 319 319 318 319 318 317 313 309 304 295 284 273 260 249 254 237 234 235